Regional Weather Roundup
Issued by NWS

Home | Current Version | Previous Version | Graphics & Text | Print | Product List | Glossary On
Versions: 1 2 3 4 5 6 7 8 9 10 11 12 13 14 15 16 17 18 19 20 21 22 23 24 25 26 27 28 29 30 31 32 33 34 35 36 37 38 39 40 41 42 43 44 45 46 47 48 49 50
000
ASUS43 KTOP 040708
RWRKS

WEATHER ROUNDUP FOR KANSAS
NATIONAL WEATHER SERVICE GOODLAND KS
200 AM CDT TUE AUG 04 2015

NOTE:  "FAIR" INDICATES FEW OR NO CLOUDS BELOW 12,000 FEET WITH NO
SIGNIFICANT WEATHER AND/OR OBSTRUCTIONS TO VISIBILITY.

KSZ001>006-013>018-027>032-041>047-040800-
NORTHWEST KANSAS

CITY           SKY/WX    TMP DP  RH WIND       PRES   REMARKS
GOODLAND       CLOUDY    68  60  75 E5        30.01F
HAYS           CLOUDY    75  63  64 SE7       29.94F
HILL CITY      CLOUDY    76  66  71 S6        29.94F
RUSSELL        CLOUDY    75  68  78 S8        29.92F
$$

KSZ061>065-074>080-084>089-040800-
SOUTHWEST KANSAS

CITY           SKY/WX    TMP DP  RH WIND       PRES   REMARKS
DODGE CITY     CLOUDY    72  66  81 S10       29.96F
ELKHART          N/A     68  58  70 SW13        N/A
GARDEN CITY    CLOUDY    72  67  84 SE8       29.96F
GREAT BEND     CLOUDY    75  66  73 S5        29.94S
LIBERAL        MOCLDY    73  66  78 SE6       29.96
PRATT          CLOUDY    75  66  73 S6        29.95F
$$

KSZ066>073-081>083-090>101-040800-
SOUTHEAST KANSAS

CITY           SKY/WX    TMP DP  RH WIND       PRES   REMARKS
CHANUTE        CLEAR     70  67  90 S6        29.94F
COFFEYVILLE    CLEAR     70  67  90 SE3       29.93S
HUTCHINSON     CLOUDY    76  67  73 SE6       29.94S
MEDICINE LODGE   N/A     76  70  82 SE6       29.93S
NEWTON         CLOUDY    73  64  73 S7        29.97S
PARSONS        CLEAR     67  66  97 CALM      29.95S
WICHITA INTL   CLOUDY    76  67  73 S5        29.94R
WICHITA JABRA  CLOUDY    75  67  76 S3        29.94S
WICHITA MCCONL CLOUDY    75  66  73 SE7       29.94S
$$

KSZ007>012-019>026-033>040-048>060-102>105-040800-
NORTHEAST KANSAS

CITY           SKY/WX    TMP DP  RH WIND       PRES   REMARKS
CONCORDIA      PTCLDY    73  72  96 E3        29.93S
EMPORIA        PTCLDY    72  67  84 S8        29.93S
LAWRENCE       PTCLDY    73  70  90 SE3       29.93F
MANHATTAN      CLEAR     75  72  90 NE5       29.92S
MARYSVILLE     PTCLDY    72  70  94 SE6       29.94S
OLATHE IND     PTCLDY    75  71  87 E7        29.95F
OLATHE EXE     PTCLDY    75  70  84 CALM      29.94F
SALINA         MOCLDY    78  68  71 S6        29.91F
TOPEKA BILLARD CLEAR     75  71  87 E3        29.93S
TOPEKA FORBES  CLEAR     76  70  82 E3        29.93S
$$



USA.gov is the U.S. government's official web portal to all federal, state and local government web resources and services.